Date,TemperatureHighF,TemperatureAvgF,TemperatureLowF,DewpointHighF,DewpointAvgF,DewpointLowF,HumidityHigh,HumidityAvg,HumidityLow,PressureMaxIn,PressureMinIn,WindSpeedMaxMPH,WindSpeedAvgMPH,GustSpeedMaxMPH,PrecipitationSumIn
2013-1-1,20.5,6.9,-10.3,17.9,3.4,-14.5,90,85,80,30.44,30.17,8,3,11,0.00
2013-1-2,24.9,17.9,11.4,22.9,15.5,9.1,93,90,83,30.25,30.05,9,5,13,0.00
2013-1-3,14.2,9.9,3.5,11.3,6.1,-0.8,89,84,79,30.43,30.24,8,6,11,0.00
2013-1-4,25.7,18.9,12.0,18.3,13.9,8.6,95,81,71,30.25,30.16,8,4,10,0.00
2013-1-5,21.8,13.2,7.3,15.2,9.4,4.2,91,84,74,30.21,29.99,8,3,12,0.00
2013-1-6,20.0,12.8,5.9,16.5,9.9,1.8,92,88,82,30.38,30.06,7,4,10,0.00
2013-1-7,35.1,28.0,20.2,27.3,22.9,16.5,89,81,73,30.08,30.00,13,6,17,0.00
2013-1-8,30.5,24.8,17.5,27.5,21.7,14.8,92,88,82,30.07,29.82,10,4,14,0.00
2013-1-9,32.9,29.5,25.3,29.7,24.0,21.1,88,80,71,30.45,30.03,15,6,20,0.00
2013-1-10,37.9,33.0,27.4,32.4,28.1,24.1,96,83,64,30.35,29.78,9,4,13,0.11
2013-1-11,36.7,34.7,29.5,36.2,34.0,28.0,98,97,96,29.78,29.44,11,3,15,0.00
2013-1-12,28.4,10.2,2.2,27.2,5.6,-2.3,95,81,73,30.23,29.47,17,10,26,0.00
2013-1-13,5.9,3.1,-0.5,1.2,-1.6,-5.2,84,80,77,30.41,30.21,8,4,11,0.00
2013-1-14,10.3,5.4,-0.5,5.7,1.1,-3.9,86,82,73,30.58,30.41,8,3,9,0.00
2013-1-15,27.9,16.3,6.0,20.6,11.0,2.8,88,80,69,30.42,29.92,13,5,17,0.00
2013-1-16,35.1,24.2,4.6,32.2,20.0,-0.6,95,84,70,30.36,29.77,14,7,19,0.03
2013-1-17,18.5,10.1,-1.2,11.9,3.5,-6.5,85,74,63,30.54,30.36,7,3,9,0.00
2013-1-18,37.7,29.1,16.9,31.2,24.8,11.5,91,84,77,30.39,29.84,8,5,11,0.00
2013-1-19,37.6,21.4,0.3,32.3,16.3,-5.2,92,80,66,30.40,29.77,17,7,29,0.00
2013-1-20,7.4,1.4,-4.1,3.1,-4.6,-10.6,82,75,70,30.57,30.39,10,6,14,0.00
2013-1-21,-4.2,-6.6,-10.3,-10.9,-12.7,-16.9,81,74,68,30.55,30.48,11,5,17,0.00
2013-1-22,6.4,-4.2,-13.1,0.7,-10.0,-17.8,81,75,71,30.59,30.41,6,2,7,0.00
2013-1-23,12.8,4.8,-5.4,7.0,-1.6,-13.8,87,75,61,30.77,30.32,11,4,19,0.00
2013-1-24,13.8,2.7,-6.5,5.4,-6.0,-15.1,70,66,61,30.82,30.29,11,5,16,0.00
2013-1-25,18.7,10.2,1.3,14.0,3.8,-4.1,83,75,69,30.46,30.11,12,7,17,0.00
2013-1-26,23.1,11.7,-1.0,15.6,4.7,-6.0,81,73,63,30.49,30.21,9,4,11,0.00
2013-1-27,31.8,28.8,22.4,30.5,24.6,14.4,96,85,71,30.21,29.88,7,3,10,0.08
2013-1-28,33.7,32.1,30.7,32.9,31.2,29.7,98,97,96,29.97,29.72,6,2,11,0.00
2013-1-29,34.8,31.0,24.7,31.7,28.7,21.1,98,91,83,29.87,29.61,12,4,15,0.00
2013-1-30,24.7,14.6,4.4,21.1,9.9,-0.4,86,81,75,29.93,29.80,12,8,16,0.00
2013-1-31,4.3,-3.3,-9.5,-0.3,-8.9,-15.0,81,76,71,30.48,29.94,13,9,19,0.00